GFSNIL_prec_precacc24_171.txt.gz
Total_Precipitation_Accumulation
0.00 0.00 0.00 0.00 0.00 0.00 0.00 0.00 0.00 0.00 0.00 0.00 0.00 0.00 0.00 0.00 0.00 0.00 0.00 0.00 0.00 0.00
0.00 0.00 0.00 0.00 0.00 0.00 0.00 0.00 0.00 0.00 0.00 0.00 0.00 0.00 0.00 0.00 0.00 0.00 0.00 0.00 0.00 0.00
0.00 0.00 0.00 0.00 0.00 0.00 0.00 0.00 0.00 0.00 0.00 0.00 0.00 0.00 0.00 0.00 0.00 0.00 0.00 0.00 0.00 0.00
0.00 0.00 0.00 0.00 0.00 0.00 0.00 0.00 0.00 0.00 0.00 0.00 0.00 0.00 0.00 0.00 0.00 0.00 0.00 0.00 0.00 0.00
0.00 0.00 0.00 0.00 0.01 0.01 0.01 0.01 0.01 0.01 0.02 0.02 0.02 0.01 0.00 0.00 0.00 0.00 0.00 0.00 0.00 0.00
0.07 0.07 0.08 0.08 0.08 0.08 0.09 0.10 0.09 0.07 0.05 0.04 0.03 0.01 0.01 0.00 0.00 0.00 0.00 0.00 0.00 0.00
0.15 0.15 0.14 0.15 0.15 0.13 0.13 0.12 0.10 0.08 0.08 0.07 0.07 0.05 0.02 0.00 0.00 0.00 0.00 0.00 0.00 0.00
0.19 0.18 0.16 0.14 0.15 0.17 0.19 0.20 0.19 0.19 0.18 0.18 0.19 0.14 0.08 0.01 0.00 0.00 0.00 0.00 0.00 0.00
0.12 0.14 0.18 0.23 0.25 0.27 0.29 0.28 0.24 0.20 0.19 0.22 0.15 0.08 0.04 0.02 0.00 0.00 0.00 0.00 0.00 0.00
0.09 0.11 0.14 0.18 0.21 0.21 0.17 0.15 0.17 0.19 0.20 0.17 0.10 0.09 0.08 0.03 0.01 0.01 0.00 0.00 0.00 0.00
0.06 0.06 0.11 0.15 0.16 0.14 0.13 0.14 0.12 0.11 0.13 0.10 0.06 0.04 0.04 0.02 0.01 0.00 0.01 0.01 0.00 0.00
0.07 0.08 0.09 0.06 0.07 0.09 0.10 0.13 0.11 0.10 0.10 0.06 0.05 0.03 0.01 0.01 0.01 0.00 0.01 0.00 0.00 0.00
0.08 0.06 0.05 0.05 0.07 0.08 0.08 0.08 0.08 0.11 0.12 0.10 0.06 0.03 0.01 0.00 0.01 0.00 0.00 0.00 0.00 0.00
0.10 0.07 0.06 0.06 0.06 0.06 0.06 0.06 0.06 0.06 0.07 0.04 0.03 0.03 0.02 0.01 0.00 0.00 0.01 0.01 0.01 0.00

GFSNIL_prec_precacc24_174.txt.gz
Total_Precipitation_Accumulation
0.06 0.04 0.03 0.01 0.01 0.00 0.00 0.00 0.00 0.00 0.00 0.00 0.00 0.00 0.00 0.00 0.00 0.00 0.00 0.00 0.00 0.00
0.15 0.12 0.09 0.04 0.01 0.01 0.00 0.00 0.00 0.00 0.00 0.00 0.00 0.00 0.00 0.00 0.00 0.00 0.00 0.00 0.00 0.00
0.06 0.04 0.03 0.01 0.01 0.00 0.00 0.00 0.00 0.00 0.00 0.00 0.00 0.00 0.00 0.00 0.00 0.00 0.00 0.00 0.00 0.00
0.05 0.04 0.02 0.01 0.01 0.00 0.00 0.00 0.00 0.00 0.00 0.00 0.00 0.00 0.00 0.00 0.00 0.00 0.00 0.00 0.00 0.00
0.02 0.02 0.01 0.01 0.01 0.01 0.01 0.01 0.01 0.01 0.03 0.03 0.02 0.01 0.00 0.00 0.00 0.00 0.00 0.00 0.00 0.00
0.08 0.07 0.08 0.08 0.08 0.08 0.09 0.10 0.09 0.07 0.06 0.04 0.03 0.02 0.01 0.02 0.02 0.01 0.00 0.00 0.00 0.00
0.15 0.15 0.14 0.15 0.15 0.13 0.13 0.12 0.10 0.08 0.08 0.07 0.07 0.06 0.04 0.04 0.03 0.02 0.00 0.00 0.00 0.00
0.19 0.18 0.16 0.14 0.15 0.17 0.19 0.20 0.19 0.19 0.19 0.21 0.23 0.19 0.15 0.10 0.05 0.02 0.01 0.00 0.00 0.00
0.12 0.14 0.18 0.23 0.25 0.27 0.29 0.28 0.25 0.23 0.25 0.29 0.21 0.11 0.10 0.09 0.05 0.03 0.01 0.01 0.00 0.00
0.09 0.11 0.14 0.18 0.21 0.21 0.17 0.16 0.18 0.19 0.21 0.19 0.14 0.14 0.18 0.11 0.07 0.06 0.04 0.01 0.00 0.00
0.06 0.06 0.11 0.15 0.16 0.14 0.13 0.14 0.13 0.12 0.14 0.12 0.09 0.06 0.10 0.13 0.11 0.07 0.03 0.02 0.01 0.00
0.07 0.08 0.09 0.06 0.07 0.09 0.10 0.14 0.11 0.11 0.11 0.07 0.07 0.06 0.07 0.07 0.06 0.04 0.02 0.01 0.00 0.00
0.08 0.06 0.05 0.05 0.07 0.08 0.08 0.08 0.08 0.12 0.13 0.11 0.08 0.08 0.06 0.05 0.04 0.02 0.01 0.00 0.00 0.00
0.10 0.07 0.06 0.06 0.07 0.06 0.06 0.06 0.07 0.07 0.08 0.05 0.04 0.03 0.03 0.02 0.01 0.01 0.01 0.01 0.01 0.00

GFSNIL_prec_precacc24_180.txt.gz
Total_Precipitation_Accumulation
0.31 0.34 0.41 0.42 0.43 0.45 0.42 0.38 0.33 0.27 0.21 0.17 0.14 0.11 0.07 0.04 0.03 0.03 0.03 0.02 0.01 0.00
0.31 0.38 0.42 0.44 0.46 0.42 0.36 0.24 0.17 0.11 0.08 0.05 0.03 0.02 0.02 0.02 0.01 0.01 0.00 0.00 0.00 0.00
0.11 0.11 0.10 0.08 0.08 0.06 0.04 0.02 0.01 0.00 0.00 0.00 0.00 0.00 0.00 0.00 0.00 0.00 0.00 0.00 0.00 0.00
0.06 0.06 0.06 0.07 0.09 0.09 0.08 0.05 0.03 0.01 0.00 0.00 0.00 0.01 0.00 0.00 0.00 0.00 0.00 0.00 0.00 0.00
0.03 0.03 0.03 0.03 0.05 0.05 0.04 0.03 0.02 0.02 0.03 0.04 0.04 0.02 0.01 0.01 0.01 0.01 0.01 0.01 0.01 0.01
0.08 0.08 0.08 0.09 0.08 0.09 0.09 0.10 0.09 0.07 0.06 0.04 0.03 0.02 0.01 0.02 0.02 0.02 0.01 0.01 0.01 0.01
0.15 0.15 0.14 0.15 0.15 0.13 0.13 0.12 0.10 0.08 0.08 0.07 0.07 0.06 0.04 0.05 0.05 0.04 0.02 0.01 0.00 0.00
0.19 0.18 0.16 0.14 0.15 0.17 0.19 0.20 0.19 0.19 0.19 0.21 0.23 0.19 0.17 0.13 0.08 0.04 0.01 0.00 0.00 0.00
0.11 0.14 0.18 0.23 0.25 0.27 0.29 0.28 0.25 0.23 0.25 0.29 0.21 0.12 0.11 0.10 0.06 0.03 0.02 0.02 0.01 0.01
0.06 0.11 0.14 0.18 0.21 0.21 0.17 0.16 0.18 0.20 0.22 0.20 0.14 0.14 0.19 0.12 0.08 0.07 0.05 0.04 0.03 0.02
0.03 0.06 0.11 0.15 0.16 0.14 0.13 0.14 0.13 0.12 0.15 0.13 0.09 0.07 0.11 0.14 0.13 0.11 0.09 0.06 0.04 0.04
0.03 0.07 0.08 0.06 0.07 0.09 0.10 0.13 0.11 0.11 0.12 0.07 0.07 0.06 0.07 0.08 0.08 0.07 0.08 0.07 0.04 0.04
0.04 0.05 0.05 0.05 0.07 0.08 0.08 0.08 0.08 0.12 0.13 0.11 0.08 0.08 0.06 0.05 0.06 0.06 0.06 0.04 0.02 0.01
0.07 0.07 0.06 0.06 0.07 0.06 0.06 0.06 0.07 0.07 0.09 0.06 0.04 0.03 0.03 0.02 0.01 0.01 0.01 0.01 0.01 0.01

GFSNIL_prec_precacc24_186.txt.gz
Total_Precipitation_Accumulation
0.38 0.43 0.53 0.57 0.61 0.75 0.87 0.92 0.96 1.03 1.08 1.00 0.80 0.56 0.40 0.29 0.22 0.19 0.18 0.15 0.12 0.10
0.37 0.45 0.48 0.50 0.54 0.57 0.61 0.63 0.58 0.47 0.31 0.18 0.11 0.06 0.04 0.03 0.02 0.01 0.02 0.03 0.03 0.02
0.11 0.12 0.11 0.12 0.12 0.11 0.09 0.07 0.05 0.02 0.01 0.01 0.00 0.00 0.00 0.00 0.00 0.00 0.00 0.00 0.00 0.01
0.06 0.06 0.06 0.08 0.09 0.09 0.08 0.05 0.03 0.01 0.00 0.00 0.00 0.01 0.00 0.00 0.00 0.00 0.00 0.00 0.00 0.00
0.03 0.03 0.03 0.04 0.05 0.05 0.04 0.03 0.02 0.02 0.03 0.04 0.04 0.02 0.01 0.01 0.01 0.01 0.01 0.01 0.01 0.01
0.01 0.03 0.06 0.07 0.07 0.08 0.09 0.10 0.09 0.07 0.06 0.04 0.03 0.02 0.01 0.02 0.02 0.02 0.01 0.01 0.01 0.01
0.08 0.09 0.09 0.10 0.13 0.13 0.13 0.12 0.10 0.08 0.08 0.07 0.07 0.06 0.04 0.05 0.05 0.04 0.02 0.01 0.00 0.00
0.13 0.13 0.12 0.11 0.14 0.17 0.19 0.20 0.19 0.19 0.19 0.21 0.23 0.19 0.17 0.13 0.08 0.04 0.01 0.00 0.00 0.00
0.04 0.03 0.05 0.11 0.17 0.25 0.29 0.28 0.25 0.23 0.25 0.29 0.21 0.12 0.11 0.10 0.06 0.03 0.02 0.02 0.01 0.01
0.00 0.02 0.06 0.14 0.20 0.21 0.17 0.16 0.18 0.20 0.22 0.20 0.14 0.14 0.19 0.12 0.08 0.07 0.05 0.04 0.03 0.02
0.04 0.04 0.08 0.11 0.13 0.13 0.13 0.14 0.13 0.12 0.14 0.13 0.09 0.07 0.11 0.14 0.12 0.11 0.08 0.05 0.04 0.04
0.16 0.05 0.03 0.03 0.06 0.08 0.09 0.13 0.11 0.11 0.12 0.07 0.06 0.06 0.07 0.08 0.08 0.07 0.08 0.07 0.04 0.04
0.15 0.10 0.03 0.03 0.05 0.08 0.08 0.08 0.08 0.11 0.12 0.11 0.08 0.08 0.06 0.05 0.05 0.06 0.06 0.04 0.02 0.02
0.11 0.09 0.06 0.06 0.05 0.06 0.06 0.06 0.06 0.06 0.08 0.05 0.03 0.03 0.03 0.02 0.01 0.01 0.01 0.01 0.01 0.01

GFSNIL_prec_precacc24_192.txt.gz
Total_Precipitation_Accumulation
0.43 0.47 0.57 0.62 0.67 0.82 0.94 1.04 1.14 1.21 1.27 1.26 1.09 0.94 0.79 0.66 0.55 0.45 0.38 0.31 0.25 0.19
0.41 0.50 0.55 0.57 0.60 0.63 0.70 0.75 0.74 0.65 0.50 0.37 0.30 0.28 0.25 0.21 0.16 0.08 0.04 0.04 0.03 0.03
0.12 0.13 0.12 0.14 0.15 0.18 0.20 0.19 0.16 0.13 0.09 0.07 0.05 0.04 0.04 0.03 0.00 0.00 0.00 0.00 0.00 0.01
0.06 0.06 0.06 0.08 0.10 0.11 0.10 0.08 0.07 0.05 0.03 0.03 0.02 0.02 0.01 0.00 0.00 0.00 0.00 0.00 0.00 0.00
0.03 0.03 0.03 0.04 0.04 0.04 0.03 0.01 0.01 0.00 0.01 0.04 0.04 0.02 0.01 0.01 0.01 0.01 0.01 0.01 0.01 0.01
0.00 0.00 0.01 0.01 0.01 0.00 0.00 0.00 0.00 0.00 0.01 0.03 0.03 0.02 0.01 0.02 0.02 0.02 0.01 0.01 0.01 0.01
0.00 0.00 0.00 0.00 0.00 0.00 0.00 0.00 0.01 0.01 0.03 0.04 0.05 0.06 0.04 0.05 0.05 0.04 0.02 0.01 0.00 0.00
0.00 0.00 0.00 0.00 0.00 0.01 0.02 0.05 0.08 0.10 0.12 0.15 0.20 0.19 0.17 0.13 0.08 0.04 0.01 0.00 0.00 0.00
0.02 0.03 0.04 0.04 0.03 0.03 0.06 0.13 0.14 0.16 0.19 0.23 0.19 0.12 0.11 0.10 0.06 0.03 0.02 0.02 0.01 0.01
0.25 0.23 0.17 0.13 0.11 0.07 0.04 0.07 0.09 0.12 0.14 0.14 0.13 0.14 0.18 0.12 0.08 0.07 0.05 0.04 0.03 0.02
0.83 0.65 0.47 0.30 0.15 0.11 0.07 0.06 0.05 0.08 0.09 0.07 0.06 0.06 0.11 0.14 0.12 0.11 0.08 0.05 0.04 0.04
0.63 0.52 0.38 0.28 0.17 0.06 0.03 0.03 0.03 0.06 0.08 0.06 0.06 0.06 0.07 0.08 0.08 0.07 0.08 0.07 0.04 0.04
0.25 0.31 0.31 0.26 0.23 0.21 0.16 0.11 0.08 0.07 0.07 0.08 0.07 0.08 0.06 0.05 0.05 0.06 0.06 0.04 0.02 0.02
0.14 0.16 0.18 0.23 0.25 0.18 0.14 0.10 0.07 0.05 0.06 0.04 0.03 0.03 0.03 0.02 0.01 0.01 0.01 0.01 0.01 0.01

GFSNIL_prec_precacc24_195.txt.gz
Total_Precipitation_Accumulation
0.43 0.48 0.59 0.64 0.70 0.85 0.98 1.09 1.19 1.27 1.36 1.39 1.26 1.12 0.97 0.84 0.68 0.57 0.47 0.39 0.33 0.28
0.41 0.50 0.55 0.58 0.61 0.65 0.72 0.78 0.77 0.67 0.51 0.39 0.34 0.31 0.29 0.26 0.21 0.15 0.11 0.09 0.07 0.04
0.12 0.13 0.12 0.14 0.15 0.18 0.21 0.20 0.17 0.15 0.12 0.10 0.08 0.07 0.05 0.04 0.04 0.03 0.02 0.01 0.01 0.01
0.06 0.06 0.06 0.08 0.10 0.11 0.11 0.09 0.07 0.05 0.04 0.03 0.02 0.03 0.03 0.03 0.02 0.02 0.01 0.00 0.00 0.00
0.03 0.03 0.03 0.04 0.05 0.04 0.03 0.02 0.01 0.01 0.01 0.03 0.03 0.03 0.02 0.02 0.01 0.01 0.01 0.02 0.02 0.01
0.00 0.00 0.01 0.01 0.01 0.01 0.00 0.00 0.00 0.00 0.01 0.01 0.01 0.00 0.00 0.01 0.02 0.02 0.01 0.01 0.01 0.01
0.00 0.00 0.00 0.00 0.00 0.00 0.00 0.00 0.00 0.00 0.00 0.00 0.00 0.01 0.02 0.04 0.05 0.04 0.02 0.01 0.00 0.00
0.00 0.00 0.00 0.00 0.00 0.00 0.00 0.00 0.00 0.00 0.01 0.03 0.04 0.06 0.09 0.12 0.08 0.04 0.01 0.00 0.00 0.00
0.04 0.05 0.05 0.05 0.05 0.04 0.02 0.01 0.02 0.05 0.08 0.08 0.06 0.04 0.07 0.08 0.05 0.03 0.02 0.02 0.01 0.01
0.27 0.26 0.19 0.16 0.14 0.13 0.13 0.12 0.10 0.07 0.08 0.06 0.05 0.05 0.11 0.09 0.07 0.06 0.05 0.04 0.03 0.02
0.84 0.67 0.50 0.33 0.19 0.15 0.14 0.10 0.06 0.05 0.05 0.05 0.04 0.03 0.08 0.13 0.12 0.11 0.08 0.05 0.04 0.04
0.63 0.52 0.39 0.31 0.21 0.10 0.06 0.05 0.04 0.02 0.03 0.02 0.03 0.04 0.06 0.08 0.08 0.07 0.08 0.07 0.04 0.04
0.25 0.31 0.31 0.26 0.26 0.26 0.22 0.17 0.16 0.11 0.04 0.02 0.03 0.06 0.05 0.05 0.05 0.06 0.06 0.04 0.02 0.02
0.14 0.15 0.18 0.23 0.25 0.22 0.19 0.16 0.15 0.15 0.15 0.10 0.03 0.02 0.02 0.01 0.01 0.01 0.01 0.01 0.01 0.01

GFSNIL_prec_precacc24_201.txt.gz
Total_Precipitation_Accumulation
0.21 0.23 0.30 0.38 0.55 0.71 0.82 0.97 1.13 1.25 1.37 1.41 1.28 1.17 1.04 0.91 0.74 0.64 0.59 0.52 0.41 0.32
0.13 0.16 0.17 0.18 0.26 0.36 0.51 0.64 0.71 0.64 0.51 0.39 0.34 0.32 0.29 0.26 0.22 0.15 0.11 0.10 0.07 0.05
0.02 0.03 0.03 0.06 0.09 0.14 0.18 0.19 0.17 0.15 0.13 0.10 0.08 0.07 0.06 0.05 0.04 0.03 0.02 0.01 0.01 0.02
0.00 0.01 0.02 0.02 0.03 0.05 0.07 0.06 0.06 0.05 0.03 0.04 0.03 0.03 0.03 0.03 0.03 0.02 0.02 0.02 0.01 0.02
0.00 0.00 0.01 0.01 0.01 0.01 0.01 0.00 0.00 0.00 0.01 0.02 0.02 0.02 0.02 0.02 0.01 0.01 0.02 0.03 0.02 0.03
0.00 0.00 0.01 0.00 0.00 0.00 0.00 0.00 0.00 0.00 0.01 0.02 0.02 0.02 0.01 0.01 0.01 0.01 0.01 0.01 0.01 0.02
0.00 0.00 0.00 0.00 0.00 0.00 0.00 0.00 0.00 0.00 0.00 0.00 0.01 0.00 0.00 0.00 0.00 0.01 0.00 0.00 0.00 0.00
0.00 0.00 0.00 0.00 0.00 0.00 0.00 0.00 0.00 0.00 0.00 0.00 0.00 0.00 0.00 0.00 0.00 0.00 0.00 0.00 0.00 0.00
0.04 0.05 0.05 0.05 0.05 0.04 0.02 0.01 0.01 0.02 0.02 0.02 0.01 0.02 0.02 0.01 0.00 0.00 0.00 0.00 0.00 0.00
0.27 0.26 0.19 0.17 0.15 0.14 0.14 0.13 0.09 0.07 0.07 0.05 0.03 0.04 0.03 0.03 0.01 0.00 0.00 0.00 0.00 0.00
0.84 0.67 0.50 0.33 0.19 0.15 0.13 0.09 0.05 0.03 0.02 0.02 0.01 0.03 0.03 0.03 0.02 0.00 0.00 0.00 0.01 0.02
0.63 0.52 0.39 0.31 0.21 0.10 0.06 0.06 0.04 0.03 0.03 0.03 0.02 0.05 0.08 0.11 0.07 0.07 0.08 0.09 0.10 0.09
0.25 0.31 0.31 0.26 0.26 0.26 0.22 0.18 0.16 0.15 0.11 0.11 0.11 0.18 0.26 0.30 0.27 0.25 0.21 0.21 0.21 0.11
0.14 0.15 0.18 0.23 0.25 0.22 0.19 0.16 0.15 0.17 0.18 0.17 0.15 0.17 0.25 0.26 0.25 0.23 0.26 0.28 0.25 0.16

GFSNIL_prec_precacc24_207.txt.gz
Total_Precipitation_Accumulation
0.08 0.08 0.08 0.11 0.15 0.19 0.23 0.34 0.49 0.66 0.89 1.00 0.99 0.96 0.86 0.74 0.59 0.50 0.44 0.39 0.31 0.25
0.06 0.07 0.10 0.11 0.11 0.12 0.22 0.33 0.41 0.44 0.38 0.31 0.29 0.29 0.27 0.24 0.20 0.14 0.10 0.07 0.05 0.03
0.01 0.01 0.02 0.03 0.06 0.09 0.14 0.16 0.15 0.14 0.12 0.10 0.08 0.07 0.06 0.05 0.04 0.04 0.02 0.01 0.01 0.01
0.00 0.00 0.00 0.00 0.00 0.01 0.03 0.04 0.04 0.04 0.03 0.04 0.03 0.03 0.03 0.03 0.03 0.02 0.02 0.02 0.01 0.02
0.00 0.00 0.00 0.00 0.01 0.00 0.00 0.00 0.00 0.00 0.01 0.02 0.02 0.02 0.02 0.01 0.01 0.01 0.01 0.02 0.02 0.02
0.00 0.00 0.00 0.00 0.00 0.00 0.00 0.00 0.00 0.00 0.01 0.02 0.02 0.02 0.01 0.01 0.01 0.01 0.01 0.01 0.01 0.01
0.00 0.00 0.00 0.00 0.00 0.00 0.00 0.00 0.00 0.00 0.00 0.00 0.01 0.00 0.00 0.00 0.00 0.00 0.00 0.00 0.00 0.00
0.00 0.00 0.00 0.00 0.00 0.00 0.00 0.00 0.00 0.00 0.00 0.00 0.00 0.00 0.00 0.00 0.00 0.00 0.00 0.00 0.00 0.00
0.04 0.05 0.05 0.05 0.05 0.04 0.02 0.01 0.01 0.02 0.02 0.02 0.01 0.02 0.02 0.01 0.00 0.00 0.00 0.00 0.00 0.01
0.27 0.26 0.19 0.17 0.15 0.14 0.14 0.13 0.09 0.07 0.07 0.05 0.02 0.04 0.03 0.03 0.01 0.00 0.00 0.00 0.00 0.01
0.84 0.67 0.50 0.33 0.19 0.15 0.13 0.09 0.05 0.03 0.02 0.02 0.01 0.03 0.03 0.04 0.02 0.01 0.01 0.04 0.06 0.09
0.64 0.52 0.39 0.31 0.21 0.10 0.06 0.06 0.04 0.03 0.03 0.02 0.02 0.05 0.08 0.11 0.08 0.08 0.11 0.14 0.17 0.22
0.25 0.31 0.31 0.26 0.26 0.26 0.22 0.18 0.16 0.15 0.11 0.11 0.12 0.19 0.26 0.30 0.28 0.27 0.24 0.24 0.26 0.27
0.13 0.15 0.18 0.23 0.25 0.22 0.19 0.16 0.15 0.17 0.18 0.17 0.16 0.19 0.26 0.27 0.24 0.23 0.26 0.28 0.28 0.25